Location: Bakov nad Jizerou
(50.4784°N, 14.9394°E)
Time: 23:42:59
(UTC+00:00)

USA 267 - Pass Details

Date: 16 June 2021
Orbit: 1102 x 1106 km, 123.0° (Epoch: 21 July)

Event Time Altitude Azimuth Distance (km) Brightness Sun altitude
Exits shadow 22:12:28 14° 133° (SE) 2,670 4.8 -15.4°
Maximum altitude 22:18:13 71° 216° (SW) 1,160 3.2 -15.5°
Drops below altitude 10° 22:24:47 10° 300° (WNW) 2,969 6.1 -15.7°
Sets 22:27:17 0° 303° (WNW) 3,930 6.8 -15.8°
